Regional Weather Roundup
Issued by NWS

Home | Current Version | Previous Version | Graphics & Text | Print | Product List | Glossary On
Versions: 1 2 3 4 5 6 7 8 9 10 11 12 13 14 15 16 17 18 19 20 21 22 23 24 25 26 27 28 29 30 31 32 33 34 35 36 37 38 39 40 41 42 43 44 45 46 47 48 49 50
000
ASUS45 KBOU 292107
RWRCO

WEATHER ROUNDUP FOR COLORADO
NATIONAL WEATHER SERVICE DENVER/BOULDER CO
200 PM MST THU JAN 29 2015

NOTE: "FAIR" INDICATES FEW OR NO CLOUDS BELOW 12000 FEET WITH NO
SIGNIFICANT WEATHER AND/OR OBSTRUCTIONS TO VISIBILITY.

COZ001>005-013-030-031-292200-
...NORTHWEST COLORADO...

CITY           SKY/WX    TMP DP  RH WIND       PRES   REMARKS
CRAIG          PTSUNNY   41  31  67 CALM      30.34F
HAYDEN         PTSUNNY   37  27  65 SW6       30.33F
MEEKER         PTSUNNY   38  27  64 SE5       30.32F
MOUNT WERNER   NOT AVBL
STEAMBOAT SPGS PTSUNNY   40  28  63 CALM      30.32F
WALDEN         SUNNY     36  23  60 NW3       30.36F
$$

COZ006>008-011-292200-
...WEST CENTRAL VALLEYS...

CITY           SKY/WX    TMP DP  RH WIND       PRES   REMARKS
GRAND JUNCTION PTSUNNY   52  27  38 VRB6      30.28F
MONTROSE       CLOUDY    49  28  44 VRB6      30.31F
EAGLE          NOT AVBL
RIFLE          MOSUNNY   51  25  36 CALM      30.28F
DELTA          NOT AVBL
NUCLA          CLOUDY    48  30  49 CALM      30.34F
$$

COZ017>023-064>068-292200-
...SOUTHWEST COLORADO...

CITY           SKY/WX    TMP DP  RH WIND       PRES   REMARKS
DURANGO        CLOUDY    46  30  53 NE5       30.36F
CORTEZ         CLOUDY    53  28  38 SE5       30.30F
PAGOSA SPRINGS CLOUDY    45  24  43 CALM      30.39S
TELLURIDE      CLOUDY    42  22  44 CALM      30.36S
WOLF CREEK PAS NOT AVBL
$$

COZ009-010-012-014-032>034-037-058>063-292200-
...CENTRAL COLORADO...

CITY           SKY/WX    TMP DP  RH WIND       PRES   REMARKS
ASPEN          MOSUNNY   43  20  39 N7        30.31F
BUENA VISTA    CLOUDY    34  25  71 SE7       30.44F WCI  28
COPPER MTN     SUNNY     32  18  55 SE13G21   30.41F WCI  22
BERTHOUD PASS  FAIR      19  14  79 SE18      30.43F WCI   4
COTTONWOOD PAS CLOUDY    30  27  86 SE7       30.43F WCI  23
GUNNISON       CLOUDY    28  19  69 CALM      30.40F
KREMMLING      PTSUNNY   41  27  56 CALM      30.36F
LEADVILLE      SUNNY     27  20  75 S16       30.38F WCI  15
SALIDA         CLOUDY    38  25  60 SE9       30.52F
SUNLIGHT       MOSUNNY   37  21  52 CALM      30.40F
WILKERSON PASS CLOUDY    25  21  86 SW3       30.46F
$$

COZ069>075-292200-
...SAN LUIS VALLEY/SANGRE DE CRISTO MOUNTAINS...

CITY           SKY/WX    TMP DP  RH WIND       PRES   REMARKS
ALAMOSA        CLOUDY    44  22  41 SE9       30.38F
LA VETA PASS   NOT AVBL
SAGUACHE       CLOUDY    37  27  65 SE6       30.40F
$$

COZ035-036-038>040-292200-
...NORTHERN COLORADO FRONT RANGE...

CITY           SKY/WX    TMP DP  RH WIND       PRES   REMARKS
DENVER INTL AP PTSUNNY   47  24  40 SE12      30.42F
DMNS CITY PARK   N/A     47  25  42 SE7       30.41F
AURORA         PTSUNNY   45  23  41 SE8       30.42F
FRONT RANGE AP NOT AVBL
ERIE MUNI ARPT MOSUNNY   48  23  37 S6        30.42F
BOULDER MUN AP MOSUNNY   46  27  46 SE8       30.41F
CENTENNIAL     PTSUNNY   44  27  51 SE12      30.41F
BROOMFIELD     PTSUNNY   45  25  45 SE7       30.42F
FORT COLLINS   SUNNY     46  25  42 S14       30.43F
LONGMONT       SUNNY     50  25  36 SE6       30.43F
$$

COZ041-046-047-076>085-087-088-292200-
...PIKES PEAK/PALMER DIVIDE AND SOUTHERN FOOTHILLS...

CITY           SKY/WX    TMP DP  RH WIND       PRES   REMARKS
COLO. SPRINGS  MOSUNNY   45  22  40 SE15      30.45F
A. F. ACADEMY  MOSUNNY   42  20  42 SE8       30.43F
ELLICOTT       CLOUDY   N/A N/A N/A SW7       30.45F
FALCON         MOSUNNY   41  24  50 S9        30.46S
FORT CARSON    MOSUNNY   45  21  38 SE12      30.43F
LIMON          MOSUNNY   46  18  32 NE5       30.44F
MONUMENT HILL  MOSUNNY   39  27  60 S14       30.41F
TRINIDAD       CLOUDY    42  22  44 SE6       30.46F
$$

COZ042>045-048>051-090-091-292200-
...NORTHEAST COLORADO...

CITY           SKY/WX    TMP DP  RH WIND       PRES   REMARKS
GREELEY ARPT   SUNNY     48  23  37 S6        30.41F
AKRON          SUNNY     46  17  31 NW8       30.44F
BURLINGTON     SUNNY     49  10  20 N10G18    30.46R
WRAY           SUNNY     50  10  20 NW8G16    30.45S
STERLING       SUNNY     48  19  32 N7        30.43F
HOLYOKE        SUNNY     48  14  25 NW10      30.45F
FORT MORGAN    SUNNY     47  18  30 CALM      30.44F
$$

COZ086-089-092>099-292200-
...SOUTHEAST COLORADO...

CITY           SKY/WX    TMP DP  RH WIND       PRES   REMARKS
PUEBLO         CLOUDY    49  20  31 S10       30.45F
LA JUNTA       SUNNY     52  22  30 MISG      30.46F
LAMAR          MOSUNNY   54  19  25 N9        30.45F
SPRINGFIELD      N/A     49  19  30 N10       30.45F
$$


USA.gov is the U.S. government's official web portal to all federal, state and local government web resources and services.